Temp
12 11 11 10 8 7 7 7 9 8 7 7 7 8 7 7 8 9 9 9 8 8 8 8 7 6 6 7 7 6 4 6
12 11 10 9 7 7 6 8 9 6 6 6 6 5 4 5 8 8 8 8 8 8 7 7 6 4 5 6 6 4 3 4
11 10 9 8 7 7 6 6 6 6 6 6 5 4 6 7 7 7 7 7 7 7 6 5 6 3 4 5 5 4 2 3
11 9 8 8 7 6 6 6 5 5 6 7 7 7 7 4 3 3 6 7 7 6 6 6 5 4 3 4 4 3 2 1
12 9 8 7 7 6 5 4 4 6 5 5 4 6 5 3 3 5 6 6 6 5 5 5 5 4 4 3 3 2 2 -1
12 10 9 7 6 5 4 4 5 7 6 5 4 4 3 2 4 4 4 4 4 4 4 4 3 2 2 2 -1 -0 -2 -2
12 10 8 8 5 4 4 5 6 6 6 5 4 5 4 2 2 0 0 0 2 3 2 1 2 1 1 -2 -3 -2 -2 -2
12 10 8 7 4 4 3 3 4 5 5 5 4 4 3 3 1 0 -0 -1 -2 1 0 0 0 1 -0 -2 -2 -2 -3 -3
11 10 9 7 5 4 3 3 2 3 4 3 3 3 1 0 -0 -1 -1 -2 -1 -0 -0 1 1 0 -1 -2 -3 -3 -4 -4
11 10 8 7 5 4 3 3 2 1 2 3 3 3 1 0 2 -0 -2 -2 -2 -1 -1 0 1 -0 -1 -4 -4 -4 -4 -4
11 10 8 7 5 4 3 2 1 1 3 2 1 1 1 0 -1 -3 -3 -2 -2 -2 -0 1 -0 -1 -2 -4 -5 -4 -5 -5
11 10 8 6 5 4 2 1 1 2 2 0 -0 -1 -1 -2 -3 -3 -3 -2 -1 -0 0 -1 -1 -1 -2 -1 -1 -1 -2 -2
9 9 8 5 4 4 2 0 2 3 2 -0 -1 -1 -3 -3 -2 -2 -1 -0 -0 -0 -1 -1 -1 -1 -1 -1 -1 -1 -1 -1
7 7 6 4 3 3 2 0 2 2 1 0 0 1 0 0 0 -0 -0 -0 -1 -1 -1 -2 -1 -1 -1 -1 -1 -1 -2 -2
7 5 5 4 3 2 1 -0 1 1 -1 0 0 0 0 -1 -1 -1 -1 -1 -1 -2 -2 -2 -2 -2 -2 -2 -2 -2 -2 -3
12 6 6 3 3 2 1 -1 -2 -2 -1 -1 -0 -1 -0 -1 -2 -2 -2 -2 -2 -2 -2 -2 -2 -2 -1 -4 -3 -2 -3 -3
12 11 7 3 1 2 1 -1 -2 -2 -3 -4 -3 -3 -4 -5 -6 -5 -6 -5 -3 -4 -3 -3 -2 -2 -2 -2 -6 -4 -5 -8
12 11 10 7 2 2 1 -1 -2 -2 -3 -3 -5 -4 -5 -5 -5 -5 -6 -6 -6 -6 -6 -6 -4 -3 -3 -3 -5 -7 -8 -8
11 10 10 7 4 2 1 -0 -1 -2 -3 -4 -5 -5 -5 -5 -5 -5 -5 -5 -6 -6 -6 -6 -6 -4 -4 -4 -5 -8 -8 -9
Height
1481 1485 1488 1491 1493 1493 1493 1495 1496 1498 1500 1501 1501 1503 1504 1505 1505 1505 1505 1506 1507 1506 1505 1505 1504 1503 1501 1498 1495 1493 1492 1488
1480 1484 1486 1487 1488 1491 1492 1492 1494 1498 1501 1504 1505 1505 1504 1504 1504 1505 1505 1506 1506 1506 1505 1503 1502 1501 1499 1496 1494 1491 1491 1486
1476 1480 1484 1486 1488 1489 1490 1492 1495 1498 1500 1501 1503 1503 1503 1504 1505 1504 1505 1505 1504 1504 1503 1502 1500 1499 1499 1496 1493 1491 1490 1485
1475 1479 1483 1486 1488 1489 1491 1493 1494 1496 1496 1497 1499 1501 1503 1505 1506 1505 1503 1503 1502 1502 1501 1501 1499 1499 1498 1496 1493 1491 1489 1488
1472 1477 1481 1484 1486 1487 1489 1490 1491 1492 1496 1498 1500 1504 1505 1504 1504 1504 1503 1503 1503 1502 1501 1500 1499 1498 1497 1496 1494 1492 1490 1489
1468 1473 1478 1482 1484 1485 1486 1488 1489 1491 1492 1495 1497 1499 1500 1501 1502 1503 1503 1502 1502 1502 1501 1499 1498 1498 1496 1496 1496 1493 1490 1489
1465 1471 1476 1480 1482 1483 1483 1485 1487 1490 1491 1493 1495 1497 1498 1501 1501 1505 1504 1503 1501 1501 1499 1498 1497 1498 1496 1497 1497 1493 1489 1486
1463 1467 1472 1476 1479 1481 1482 1485 1485 1488 1489 1492 1494 1496 1498 1499 1502 1501 1504 1502 1502 1500 1499 1498 1497 1496 1497 1497 1496 1491 1489 1488
1460 1464 1468 1473 1478 1480 1481 1483 1485 1486 1489 1490 1492 1495 1497 1499 1500 1500 1502 1501 1500 1499 1499 1497 1496 1497 1496 1496 1494 1492 1491 1491
1457 1462 1466 1470 1474 1477 1479 1480 1484 1484 1486 1488 1490 1492 1495 1496 1496 1498 1500 1499 1499 1499 1498 1497 1496 1497 1496 1496 1495 1493 1493 1492
1455 1458 1463 1467 1471 1476 1477 1478 1479 1482 1484 1486 1488 1490 1493 1494 1495 1497 1497 1497 1498 1498 1497 1496 1497 1496 1496 1496 1495 1492 1492 1492
1453 1457 1461 1463 1468 1472 1473 1475 1477 1479 1481 1484 1486 1489 1490 1493 1494 1494 1495 1496 1496 1497 1496 1496 1496 1496 1496 1494 1492 1491 1491 1490
1450 1454 1457 1460 1464 1468 1470 1472 1473 1476 1478 1481 1484 1485 1488 1490 1490 1492 1493 1495 1495 1495 1496 1496 1496 1496 1495 1493 1493 1492 1492 1491
1446 1450 1452 1455 1460 1464 1466 1468 1469 1472 1475 1478 1480 1482 1485 1487 1489 1490 1492 1493 1494 1494 1496 1496 1496 1496 1495 1494 1494 1493 1493 1492
1440 1444 1448 1450 1454 1458 1462 1462 1464 1468 1470 1474 1477 1480 1483 1486 1488 1489 1491 1492 1493 1494 1496 1496 1496 1495 1495 1495 1495 1495 1494 1494
1430 1433 1440 1442 1448 1452 1456 1458 1461 1464 1467 1470 1474 1479 1480 1485 1486 1487 1490 1491 1493 1494 1496 1496 1496 1496 1495 1496 1496 1496 1495 1495
1423 1425 1430 1434 1439 1445 1449 1453 1457 1461 1464 1467 1471 1475 1479 1483 1486 1486 1490 1491 1493 1494 1495 1496 1496 1496 1496 1497 1498 1498 1498 1498
1416 1419 1422 1428 1433 1440 1445 1449 1454 1458 1462 1466 1469 1472 1478 1482 1484 1487 1490 1492 1494 1496 1497 1497 1496 1497 1497 1498 1498 1502 1502 1501
1412 1415 1418 1423 1429 1435 1441 1446 1451 1455 1459 1462 1466 1469 1476 1479 1483 1486 1489 1492 1494 1495 1497 1498 1496 1497 1497 1498 1499 1502 1502 1500
Wind_Speed
22 21 19 17 14 13 12 10 9 7 6 7 6 5 5 4 2 2 3 5 6 7 8 9 10 10 11 14 15 15 13 19
20 20 18 18 16 14 12 11 8 7 7 6 6 6 5 2 1 2 4 5 6 6 7 8 9 10 12 13 14 14 14 20
22 21 19 18 16 14 12 10 10 9 7 8 8 7 5 1 2 3 4 4 5 7 8 9 10 8 11 12 13 13 11 18
21 21 19 17 15 13 12 11 10 10 10 6 6 3 1 3 2 3 5 6 7 8 8 8 8 8 9 11 12 13 13 14
21 21 20 17 15 14 12 11 10 10 10 7 7 5 5 5 2 2 4 4 5 5 5 6 6 7 8 9 10 10 11 11
22 22 20 18 16 14 13 11 10 11 12 10 8 8 7 4 3 2 2 3 4 4 4 4 5 6 7 8 8 10 10 10
19 20 19 19 16 15 14 12 10 10 10 9 9 7 6 5 4 2 1 2 3 3 4 5 5 5 7 7 7 9 11 12
19 22 22 21 19 16 14 13 11 10 9 8 8 8 8 6 5 5 3 2 1 2 3 4 5 6 6 7 8 10 12 12
19 21 23 21 20 18 16 14 12 11 10 10 10 8 7 6 6 4 3 3 2 2 3 5 5 6 6 8 9 9 10 10
18 21 23 22 21 19 18 16 14 13 12 11 11 10 8 7 6 5 4 4 2 3 4 4 5 5 7 8 9 9 9 10
17 21 22 22 21 19 18 17 16 14 13 12 11 10 9 8 7 7 6 4 4 3 3 3 4 5 7 7 8 10 10 11
18 20 22 21 23 21 18 18 19 17 14 13 12 11 10 9 8 7 7 6 5 4 3 4 4 6 7 8 9 10 11 11
22 20 21 24 24 22 21 19 21 19 16 15 14 14 12 11 10 9 8 8 7 6 6 5 6 6 7 9 10 11 11 12
21 22 25 29 25 25 23 21 22 22 20 19 17 15 12 11 10 9 10 9 8 7 7 7 7 8 9 9 10 11 12 13
19 25 25 34 29 26 24 26 23 23 22 21 17 14 13 12 12 11 10 9 9 9 9 8 8 10 10 11 11 11 12 13
22 26 28 31 37 28 27 24 24 24 22 21 20 16 15 14 13 12 11 10 10 10 9 8 8 7 8 11 10 10 11 12
22 26 25 28 32 32 29 27 26 25 23 21 21 18 15 13 13 12 11 10 10 9 8 7 7 8 8 7 10 9 10 10
17 19 23 26 27 32 30 28 27 26 24 22 21 19 17 16 15 14 13 12 12 11 9 7 6 7 6 7 11 7 7 8
14 14 19 24 25 28 28 27 27 26 26 23 22 20 18 17 16 15 14 13 12 11 10 9 6 7 6 7 10 6 6 6
Wind_Direction
182 178 174 171 167 159 163 161 164 154 139 131 128 125 120 116 88 38 8 358 356 355 345 347 355 351 350 352 357 0 357 351
184 180 177 173 169 162 162 166 159 135 132 133 129 126 120 100 18 351 344 341 337 338 341 347 360 353 352 352 360 4 3 356
183 183 182 179 172 166 163 164 158 153 151 153 151 150 156 169 302 309 321 326 337 346 356 355 357 3 351 357 1 9 12 7
187 189 188 183 178 169 164 164 162 156 180 172 172 169 129 77 48 347 339 335 342 350 347 346 355 2 358 1 3 5 18 12
194 194 191 189 182 171 163 159 162 167 150 166 156 161 162 174 168 266 299 318 332 334 338 349 355 1 3 9 5 15 21 17
194 194 193 189 184 170 163 157 170 180 183 173 162 165 173 163 210 263 310 341 347 346 357 10 20 17 20 22 19 28 30 28
192 193 191 187 181 173 176 177 184 191 188 179 177 187 178 165 150 111 76 36 352 360 25 31 35 33 39 32 33 27 37 30
191 189 189 188 187 177 168 168 179 186 186 191 182 180 178 169 139 148 126 90 43 13 47 53 45 42 40 45 39 38 34 34
195 192 189 191 188 182 175 169 169 175 181 176 171 166 158 158 158 144 149 153 157 94 61 55 50 49 50 53 45 46 44 40
198 193 191 190 189 187 179 172 171 170 176 177 174 175 163 172 173 156 153 142 103 100 83 68 60 59 64 58 57 57 52 47
195 191 191 191 190 188 181 176 178 178 185 181 172 176 174 171 160 159 158 148 137 118 106 92 83 74 79 92 73 63 67 56
197 193 191 190 189 189 182 180 185 188 186 174 174 171 170 161 155 155 163 165 156 155 144 124 117 108 97 87 82 80 67 64
196 196 194 194 192 189 187 188 195 199 189 184 180 185 166 170 177 180 184 186 181 167 152 143 124 117 104 96 84 76 69 64
204 196 199 200 194 194 190 193 198 199 195 194 194 191 195 202 199 197 194 192 180 167 156 141 130 114 99 91 84 76 67 60
206 205 206 208 198 196 192 202 200 194 199 196 197 192 199 202 195 190 185 176 169 163 150 141 128 111 102 87 76 71 64 57
231 206 206 220 209 199 195 196 195 188 193 191 192 192 197 194 184 178 175 168 165 158 153 145 129 120 104 85 69 63 58 50
251 221 204 214 208 202 196 194 189 186 182 185 182 181 176 178 175 165 164 167 159 146 144 135 128 120 108 97 88 54 59 60
245 237 218 209 206 200 198 193 186 184 180 179 176 179 176 177 172 168 170 165 162 159 149 137 138 133 121 112 107 89 75 62
248 236 214 203 199 195 194 189 186 183 179 179 178 176 178 175 172 171 168 168 165 159 153 148 160 152 138 125 109 98 79 73